Flag for U.S.A. Weather past 2 weeks in Greenville, South Carolina, U.S.A.

Now
61 °F

Fog.


Feels Like: 61 °F
Forecast: 60 / 79 °F
Wind: 6 mph from West

Location: Greenville Downtown Airport

Current Time: Apr 26, 2015 at 7:39:28 AM

Latest Report: Apr 26, 2015 at 6:53 AM


Visibility: 4 mi

Pressure: 29.57 "Hg

Humidity: 93%

Dew point: 59 °F

Location of GreenvilleLocation

Historic Weather in Greenville — Graph

°F

Greenville temperature yesterday

Maximum temperature yesterday: 64 °F (at 6:53 PM)
Minimum temperature yesterday: 55 °F (at 6:53 AM)
Average temperature yesterday: 60 °F

Past Weeks' High & Low Weather Summary

 TemperatureHumidityPressure
High82 °F (Apr 14, 4:53 PM)94% (Apr 13, 7:53 PM)30.34 "Hg (Apr 13, 7:53 PM)
Low47 °F (Apr 22, 6:53 AM)18% (Apr 23, 4:53 PM)29.56 "Hg (Apr 26, 2:53 AM)
Average63 °F66%29.99 "Hg
* Reported Apr 11 6:53 AM — Apr 26 6:01 AM, Greenville, Weather by CustomWeather, © 2015

Note: Actual official high and low records may vary slightly from our data, if they occured in-between our weather recording intervals... More about our weather records

Advertising

Greenville weather history for previous 24 hours

 ConditionsComfort  
Time TempWeatherWind HumidityBarometerVisibility
6:01 AM
Sun, Apr 26
62 °FFog.5 mph93%29.58 "Hg2 mi
4:53 AM61 °FFog.3 mph93%29.56 "Hg3 mi
4:00 AM61 °FFog.8 mph93%29.59 "Hg3 mi
2:53 AM63 °FFog.No wind93%29.56 "Hg2 mi
1:53 AM62 °FFog.5 mph90%29.58 "Hg4 mi
12:53 AM59 °FFog.3 mph93%29.57 "Hg3 mi
11:53 PM
Sat, Apr 25
61 °FFog.No wind93%29.59 "Hg6 mi
10:53 PM61 °FFog.No wind90%29.61 "Hg6 mi
10:04 PM61 °FFog.5 mph90%29.61 "Hg5 mi
9:53 PM62 °FFog.3 mph90%29.59 "Hg6 mi
8:53 PM62 °FSunny.3 mph90%29.60 "Hg8 mi
7:53 PM64 °FSunny.3 mph84%29.62 "Hg10 mi
6:53 PM64 °FOvercast.No wind84%29.62 "Hg9 mi
5:53 PM62 °FLow clouds.5 mph90%29.66 "Hg7 mi
4:53 PM61 °FLow clouds.6 mph90%29.67 "Hg7 mi
3:53 PM61 °FLow clouds.5 mph87%29.71 "Hg7 mi
2:53 PM61 °FLow clouds.5 mph83%29.73 "Hg9 mi
1:53 PM60 °FLow clouds.6 mph86%29.75 "Hg8 mi
12:53 PM59 °FLow clouds.5 mph90%29.78 "Hg7 mi
11:53 AM58 °FLow clouds.8 mph90%29.81 "Hg9 mi
11:04 AM57 °FLow clouds.7 mph93%29.84 "Hg10 mi
10:53 AM57 °FLow clouds.7 mph93%29.83 "Hg10 mi
9:53 AM56 °FLight rain. Mostly cloudy.8 mph90%29.84 "Hg8 mi
8:53 AM55 °FRain. Fog.6 mph90%29.90 "Hg5 mi
7:53 AM55 °FRain. Fog.6 mph90%29.92 "Hg3 mi
Weather by CustomWeather, © 2015

See weather overviewHow to use our weather pages